This is the latest recevied weather packets stored in our database for station/object WW5JC. If no packets are shown the sender has not sent any weather packets the latest 10 day(s).
| Time | Temp. | Humidity | Pressure | Rain* | Wind** | Luminosity | Snow |
|---|---|---|---|---|---|---|---|
| 1777227751 | 27.22° C | 83% | 1010.1 hPa | 0 mm | - | 246 W/m² | - |
| 1777227447 | 27.22° C | 82% | 1010 hPa | 0 mm | - | 309 W/m² | - |
| 1777227143 | 27.22° C | 84% | 1009.9 hPa | 0 mm | - | 311 W/m² | - |
| 1777226840 | 27.22° C | 82% | 1009.9 hPa | 0 mm | - | 294 W/m² | - |
| 1777226539 | 26.67° C | 83% | 1010.1 hPa | 0 mm | - | 338 W/m² | - |
| 1777226235 | 27.22° C | 85% | 1010.2 hPa | 0 mm | - | 249 W/m² | - |
| 1777225931 | 27.22° C | 84% | 1010.1 hPa | 0 mm | - | 275 W/m² | - |
| 1777225627 | 26.67° C | 83% | 1010.3 hPa | 0 mm | - | 277 W/m² | - |
| 1777225324 | 27.22° C | 83% | 1010.4 hPa | 0 mm | - | 323 W/m² | - |
| 1777225021 | 26.67° C | 85% | 1010.4 hPa | 0 mm | - | 372 W/m² | - |
| 1777224718 | 26.67° C | 85% | 1010.4 hPa | 0 mm | - | 307 W/m² | - |
| 1777224413 | 26.67° C | 86% | 1010.4 hPa | 0 mm | - | 316 W/m² | - |
| 1777224109 | 26.67° C | 86% | 1010.4 hPa | 0 mm | - | 337 W/m² | - |
| 1777223807 | 26.11° C | 87% | 1010.5 hPa | 0 mm | - | 287 W/m² | - |
| 1777223502 | 26.11° C | 89% | 1010.4 hPa | 0 mm | - | 281 W/m² | - |
| 1777223200 | 26.11° C | 91% | 1010.4 hPa | 0 mm | - | 391 W/m² | - |
| 1777222898 | 26.11° C | 91% | 1010.6 hPa | 0 mm | - | 256 W/m² | - |
| 1777222595 | 25.56° C | 90% | 1010.6 hPa | 0 mm | - | 315 W/m² | - |
| 1777222292 | 25.56° C | 92% | 1010.7 hPa | 0 mm | - | 370 W/m² | - |
| 1777221990 | 25.56° C | 92% | 1010.6 hPa | 0 mm | - | 350 W/m² | - |
| 1777221691 | 25.56° C | 91% | 1010.9 hPa | 0 mm | - | 309 W/m² | - |
| 1777221387 | 25° C | 92% | 1011.1 hPa | 0 mm | - | 493 W/m² | - |
| 1777221086 | 24.44° C | 94% | 1011 hPa | 0 mm | - | 290 W/m² | - |
| 1777220786 | 24.44° C | 96% | 1011.1 hPa | 0 mm | - | 174 W/m² | - |
| 1777220481 | 23.89° C | 96% | 1011.2 hPa | 0 mm | - | 285 W/m² | - |
* Rain latest hour (hover to see other rain measurements)
** Current wind speed in m/s (hover to see current wind gust speed)